EW4585 Weather Reports


Display with metric or nautical units.
time (UTC)temp
F
wind
direction
speed
MPH
gust
MPH
rain 1hr
in
rain 24hr
in
rain mn
in
humidity
%
barometer
mb
20260905231459 76 34 0.0 0.0 0.00 0.65 0.65 92 1012.1
20260905230004 75 34 0.0 3.0 0.00 0.65 0.65 92 1011.9
20260905224500 75 34 0.0 0.0 0.51 0.65 0.65 90 1011.8
20260905223000 74 34 0.0 2.0 0.65 0.65 0.65 88 1011.7
20260905221459 74 38 1.0 4.0 0.65 0.65 0.65 86 1012.1
20260905220008 75 192 2.0 10.0 0.65 0.65 0.65 83 1011.7
20260905214500 84 44 7.0 13.0 0.12 0.12 0.12 72 1012.5
20260905213001 90 267 3.0 8.0 0.00 0.00 0.00 66 1011.4
20260905211459 90 312 2.0 8.0 0.00 0.00 0.00 68 1011.4
20260905210004 90 300 1.0 5.0 0.00 0.00 0.00 67 1011.2
20260905204500 89 268 3.0 8.0 0.00 0.00 0.00 69 1011.3
20260905203000 89 268 4.0 8.0 0.00 0.00 0.00 69 1011.4
20260905201459 90 318 3.0 9.0 0.00 0.00 0.00 67 1011.7
20260905200005 90 309 4.0 9.0 0.00 0.00 0.00 68 1011.9
20260905194459 89 294 4.0 12.0 0.00 0.00 0.00 67 1011.8
20260905193000 90 297 3.0 6.0 0.00 0.00 0.00 66 1012.2
20260905191459 91 296 3.0 8.0 0.00 0.00 0.00 65 1012.2
20260905190004 92 337 2.0 6.0 0.00 0.00 0.00 64 1012.4
20260905184459 93 198 2.0 9.0 0.00 0.00 0.00 63 1012.5
20260905183002 91 297 2.0 8.0 0.00 0.00 0.00 63 1012.7
20260905181459 92 273 3.0 10.0 0.00 0.00 0.00 62 1013.0
20260905180005 92 250 2.0 9.0 0.00 0.00 0.00 61 1013.0
20260905174459 91 205 1.0 9.0 0.00 0.00 0.00 63 1013.2
20260905173000 89 282 4.0 8.0 0.00 0.00 0.00 63 1013.4
20260905170004 88 226 2.0 11.0 0.00 0.00 0.00 64 1014.0
20260905164459 87 191 3.0 8.0 0.00 0.00 0.00 64 1014.1
20260905163001 86 156 3.0 7.0 0.00 0.00 0.00 67 1014.0
20260905161459 85 192 2.0 10.0 0.00 0.00 0.00 68 1014.0
20260905154459 84 242 5.0 10.0 0.00 0.00 0.00 68 1014.1
20260905153001 83 166 6.0 13.0 0.00 0.00 0.00 69 1014.1
20260905151459 82 194 5.0 9.0 0.00 0.00 0.00 71 1014.0
20260905150005 82 217 5.0 11.0 0.00 0.00 0.00 71 1014.1
20260905144459 80 188 3.0 8.0 0.00 0.00 0.00 74 1014.0
20260905143000 78 171 4.0 10.0 0.00 0.00 0.00 75 1013.9
20260905141459 78 175 1.0 12.0 0.00 0.00 0.00 77 1013.9
20260905140007 77 194 4.0 12.0 0.00 0.00 0.00 78 1014.0
20260905132959 75 152 5.0 13.0 0.00 0.00 0.00 81 1014.1
20260905131458 73 194 4.0 8.0 0.00 0.00 0.00 82 1014.3
20260905124458 72 148 4.0 7.0 0.00 0.00 0.00 85 1014.3
20260905123000 71 163 3.0 7.0 0.00 0.00 0.00 86 1014.3
20260905121458 70 124 2.0 8.0 0.00 0.00 0.00 87 1014.1
20260905120002 70 112 1.0 5.0 0.00 0.00 0.00 87 1014.0
20260905114458 70 167 2.0 6.0 0.00 0.00 0.00 86 1014.0
20260905113000 71 186 1.0 8.0 0.00 0.00 0.00 86 1014.0
20260905110004 71 84 3.0 9.0 0.00 0.00 0.00 86 1013.9
20260905104458 71 159 2.0 8.0 0.00 0.00 0.00 85 1014.0
20260905102959 72 81 4.0 11.0 0.00 0.00 0.00 84 1014.0
20260905094458 75 193 0.0 1.0 0.00 0.00 0.00 89 1013.0
20260905092959 76 193 0.0 0.0 0.00 0.00 0.00 89 1013.1
20260905091459 76 193 0.0 2.0 0.00 0.00 0.00 89 1013.0
20260905090004 76 193 0.0 0.0 0.00 0.00 0.00 88 1012.9
20260905084459 76 193 1.0 2.0 0.00 0.00 0.00 89 1012.8
20260905081458 76 193 0.0 0.0 0.00 0.00 0.00 88 1012.8
20260905080004 76 193 0.0 1.0 0.00 0.00 0.00 88 1012.6
20260905074458 77 193 0.0 0.0 0.00 0.00 0.00 87 1012.5
20260905072959 77 193 0.0 1.0 0.00 0.00 0.00 87 1012.2
20260905071458 77 193 0.0 0.0 0.00 0.00 0.00 88 1012.0
20260905070005 77 193 0.0 2.0 0.00 0.00 0.00 88 1011.6
20260905062959 77 193 0.0 1.0 0.00 0.00 0.00 88 1012.0
20260905061458 78 193 0.0 0.0 0.00 0.00 0.00 88 1012.6
20260905060004 78 193 0.0 0.0 0.00 0.00 0.00 88 1012.7
20260905054458 78 193 1.0 1.0 0.00 0.00 0.00 88 1012.8
20260905053000 78 193 0.0 0.0 0.00 0.00 0.00 88 1012.9
20260905051458 79 193 1.0 3.0 0.00 0.00 0.00 87 1013.1
20260905050005 79 193 0.0 0.0 0.00 0.00 0.00 87 1013.2
20260905044502 79 193 0.0 0.0 0.00 0.00 0.00 87 1013.1
20260905043000 79 193 0.0 0.0 0.00 0.00 0.00 86 1013.3
20260905041500 80 193 0.0 1.0 0.00 0.00 0.00 85 1013.5
20260905040006 80 193 0.0 0.0 0.00 0.00 0.00 85 1013.5
20260905034501 80 193 0.0 3.0 0.00 0.00 0.00 85 1013.5
20260905033001 81 184 1.0 3.0 0.00 0.00 0.00 84 1013.4
20260905031500 81 184 0.0 2.0 0.00 0.00 0.00 84 1013.5
20260905030006 81 184 0.0 2.0 0.00 0.00 0.00 84 1013.6
20260905024459 82 184 0.0 3.0 0.00 0.00 0.00 84 1013.5
20260905021500 82 188 2.0 3.0 0.00 0.00 0.00 83 1013.4
20260905020005 83 178 1.0 4.0 0.00 0.00 0.00 82 1013.4
20260905014459 83 178 1.0 3.0 0.00 0.00 0.00 82 1013.4
20260905013000 83 176 2.0 4.0 0.00 0.00 0.00 81 1013.3
20260905011501 84 184 2.0 5.0 0.00 0.00 0.00 81 1013.3
20260905004500 84 196 1.0 3.0 0.00 0.00 0.00 79 1013.2
20260905003001 85 107 1.0 2.0 0.00 0.00 0.00 78 1013.2
20260905001501 85 105 2.0 4.0 0.00 0.00 0.00 77 1013.1
20260905000005 87 110 2.0 6.0 0.00 0.00 0.00 76 1013.3